This demonstration page uses our WeatherBlox Daily Observations layout. Learn more.

39.29038, -76.61219

Hourly Observations for April 23, 2018

Temp ( °F °C ) Dew Point ( °F °C ) Humidity (%) Winds ( mph kmh ) Pressure ( in mb ) Visibility ( mi km ) Precip ( " mm )
12:54 am 00:54 undefined 56 13.3 38 3.3 51 51 undefined N/A 30.42 1030 N/A 0 0
1:54 am 01:54 undefined 56 13.3 39 3.9 53 53 undefined N/A 30.42 1030 N/A 0 0
2:54 am 02:54 undefined 55 12.8 40 4.4 57 57 undefined N/A 30.4 1030 N/A 0 0
3:54 am 03:54 undefined 55 12.8 40 4.4 57 57 undefined N/A 30.41 1030 N/A 0 0
4:54 am 04:54 undefined 54 12.2 41 5 62 62 undefined N/A 30.4 1030 N/A 0 0
5:54 am 05:54 undefined 53 11.7 42 5.6 66 66 undefined N/A 30.42 1030 N/A 0 0
6:54 am 06:54 undefined 53 11.7 43 6.1 69 69 undefined N/A 30.43 1030 N/A 0 0
7:54 am 07:54 undefined 56 13.3 43 6.1 62 62 undefined N/A 30.44 1031 N/A 0 0
8:54 am 08:54 undefined 59 15 42 5.6 54 54 undefined N/A 30.45 1031 N/A 0 0
9:54 am 09:54 undefined 60 15.6 43 6.1 53 53 undefined N/A 30.45 1031 N/A 0 0
10:54 am 10:54 undefined 62 16.7 43 6.1 50 50 undefined N/A 30.44 1031 N/A 0 0
11:54 am 11:54 undefined 64 17.8 42 5.6 45 45 undefined N/A 30.44 1031 N/A 0 0
12:54 pm 12:54 undefined 64 17.8 45 7.2 50 50 undefined N/A 30.44 1031 N/A 0 0
1:54 pm 13:54 undefined 67 19.4 39 3.9 36 36 undefined N/A 30.42 1030 N/A 0 0
2:54 pm 14:54 undefined 68 20 40 4.4 36 36 undefined N/A 30.41 1030 N/A 0 0
3:54 pm 15:54 undefined 70 21.1 42 5.6 37 37 undefined N/A 30.38 1029 N/A 0 0
4:54 pm 16:54 undefined 69 20.6 43 6.1 39 39 undefined N/A 30.36 1028 N/A 0 0
5:54 pm 17:54 undefined 68 20 44 6.7 42 42 undefined N/A 30.36 1028 N/A 0 0
6:54 pm 18:54 undefined 66 18.9 40 4.4 39 39 undefined N/A 30.37 1028 N/A 0 0
7:54 pm 19:54 undefined 63 17.2 36 2.2 37 37 undefined N/A 30.38 1029 N/A 0 0
8:54 pm 20:54 undefined 61 16.1 28 -2.2 29 29 undefined N/A 30.39 1029 N/A 0 0
9:54 pm 21:54 undefined 60 15.6 30 -1.1 32 32 undefined N/A 30.4 1029 N/A 0 0
10:54 pm 22:54 undefined 59 15 33 0.6 38 38 undefined N/A 30.38 1029 N/A 0 0
11:54 pm 23:54 undefined 57 13.9 38 3.3 49 49 undefined N/A 30.38 1029 N/A 0 0

Powered by AerisWeather